Weather History for KJMR - June, 2014

Change the Weather History Date:

Wednesday, June 4, 2014

  Actual Average Record
Temperature  
Mean Temperature 64 °F -  
Max Temperature 77 °F 76 °F 94 °F (1968)
Min Temperature 50 °F 47 °F 30 °F (1990)
Degree Days  
Heating Degree Days 2    
Growing Degree Days 14 (Base 50)    
Moisture  
Dew Point 49 °F    
Average Humidity 61    
Maximum Humidity 100    
Minimum Humidity 29    
Precipitation  
Precipitation 0.00 in - - ()
Sea Level Pressure  
Sea Level Pressure 29.90 in    
Wind  
Wind Speed 1 mph (East)    
Max Wind Speed 7 mph    
Max Gust Speed -    
Visibility 10 miles    
Events      
Averages and records for this station are not official NWS values.
T = Trace of Precipitation, MM = Missing Value Source: NWS Daily Summary

Daily Weather History Graph

Daily Weather History Graph

Search for Another Location

Airport or City:

Trip Planner

Search our weather history database for the weather conditions in past years. The results will help you decide how hot, cold, wet, or windy it might be!

Date:

Astronomy

Jun. 04, 2014 Rise Set
Actual Time 5:24 AM CDT 8:58 PM CDT
Civil Twilight 4:47 AM CDT 9:36 PM CDT
Nautical Twilight 3:57 AM CDT 10:26 PM CDT
Astronomical Twilight 2:51 AM CDT 11:32 PM CDT
Moon 11:59 AM CDT (6/4) 12:44 AM CDT (6/4)
Length of Visible Light 16h 49m
Length of Day
15h 33m
Waxing Crescent, 39% of the Moon is Illuminated
Jun 4
Waxing Crescent
Jun 5
First Quarter
Jun 12
Full
Jun 19
Last Quarter
Jun 27
New

Hourly Weather History & Observations

Time (CDT) Temp. Dew Point Humidity Pressure Visibility Wind Dir Wind Speed Gust Speed Precip Events Conditions
12:14 AM 55.4 °F 51.8 °F 88% 29.87 in 10.0 mi Calm Calm - N/A   Clear
12:54 AM 55.4 °F 53.6 °F 94% 29.87 in 10.0 mi Calm Calm - N/A   Clear
1:14 AM 53.6 °F 51.8 °F 94% 29.87 in 10.0 mi Calm Calm - N/A   Clear
1:34 AM 53.6 °F 51.8 °F 94% 29.87 in 7.0 mi Calm Calm - N/A   Clear
1:54 AM 53.6 °F 51.8 °F 94% 29.87 in 3.0 mi Calm Calm - N/A   Clear
2:14 AM 53.6 °F 51.8 °F 94% 29.88 in 10.0 mi Calm Calm - N/A   Clear
2:34 AM 53.6 °F 51.8 °F 94% 29.88 in 10.0 mi Calm Calm - N/A   Clear
2:54 AM 53.6 °F 51.8 °F 94% 29.88 in 10.0 mi Calm Calm - N/A   Clear
3:14 AM 53.6 °F 51.8 °F 94% 29.88 in 5.0 mi Calm Calm - N/A   Clear
3:34 AM 53.6 °F 51.8 °F 94% 29.89 in 5.0 mi Calm Calm - N/A   Clear
3:54 AM 53.6 °F 51.8 °F 94% 29.89 in 7.0 mi Calm Calm - N/A   Clear
4:14 AM 51.8 °F 51.8 °F 100% 29.89 in 7.0 mi Calm Calm - N/A   Clear
4:34 AM 51.8 °F 50.0 °F 94% 29.89 in 10.0 mi Calm Calm - N/A   Clear
4:54 AM 50.0 °F 50.0 °F 100% 29.90 in 10.0 mi Calm Calm - N/A   Scattered Clouds
5:14 AM 51.8 °F 50.0 °F 94% 29.89 in 10.0 mi Calm Calm - N/A   Scattered Clouds
5:34 AM 51.8 °F 50.0 °F 94% 29.90 in 10.0 mi Calm Calm - N/A   Scattered Clouds
5:54 AM 51.8 °F 51.8 °F 100% 29.90 in 10.0 mi Calm Calm - N/A   Mostly Cloudy
6:14 AM 53.6 °F 51.8 °F 94% 29.89 in 10.0 mi Calm Calm - N/A   Mostly Cloudy
6:34 AM 55.4 °F 53.6 °F 94% 29.89 in 10.0 mi Calm Calm - N/A   Scattered Clouds
6:54 AM 55.4 °F 51.8 °F 88% 29.90 in 10.0 mi Calm Calm - N/A   Mostly Cloudy
7:14 AM 59.0 °F 51.8 °F 77% 29.90 in 10.0 mi Calm Calm - N/A   Scattered Clouds
7:34 AM 60.8 °F 51.8 °F 72% 29.90 in 10.0 mi Calm Calm - N/A   Clear
7:54 AM 64.4 °F 53.6 °F 68% 29.90 in 10.0 mi Calm Calm - N/A   Clear
8:14 AM 64.4 °F 53.6 °F 68% 29.90 in 10.0 mi Calm Calm - N/A   Clear
8:34 AM 64.4 °F 51.8 °F 64% 29.90 in 10.0 mi Calm Calm - N/A   Clear
8:54 AM 68.0 °F 53.6 °F 60% 29.90 in 10.0 mi East 3.5 mph - N/A   Clear
9:14 AM 69.8 °F 53.6 °F 56% 29.91 in 10.0 mi East 5.8 mph - N/A   Clear
9:34 AM 69.8 °F 51.8 °F 53% 29.92 in 10.0 mi ENE 5.8 mph - N/A   Clear
10:14 AM 71.6 °F 51.8 °F 50% 29.92 in 10.0 mi Calm Calm - N/A   Clear
10:34 AM 73.4 °F 50.0 °F 44% 29.92 in 10.0 mi East 5.8 mph - N/A   Clear
10:54 AM 71.6 °F 50.0 °F 46% 29.92 in 10.0 mi NE 3.5 mph - N/A   Clear
11:14 AM 73.4 °F 46.4 °F 38% 29.92 in 10.0 mi ENE 3.5 mph - N/A   Scattered Clouds
11:34 AM 73.4 °F 48.2 °F 41% 29.93 in 10.0 mi ESE 4.6 mph - N/A   Scattered Clouds
11:54 AM 73.4 °F 46.4 °F 38% 29.93 in 10.0 mi East 4.6 mph - N/A   Overcast
12:14 PM 73.4 °F 46.4 °F 38% 29.93 in 10.0 mi ESE 6.9 mph - N/A   Scattered Clouds
12:34 PM 73.4 °F 44.6 °F 36% 29.93 in 10.0 mi Calm Calm - N/A   Clear
12:54 PM 73.4 °F 44.6 °F 36% 29.93 in 10.0 mi Calm Calm - N/A   Scattered Clouds
1:14 PM 73.4 °F 44.6 °F 36% 29.92 in 10.0 mi East 3.5 mph - N/A   Scattered Clouds
1:34 PM 75.2 °F 46.4 °F 36% 29.92 in 10.0 mi South 3.5 mph - N/A   Scattered Clouds
2:14 PM 75.2 °F 46.4 °F 36% 29.92 in 10.0 mi Calm Calm - N/A   Mostly Cloudy
2:34 PM 75.2 °F 46.4 °F 36% 29.92 in 10.0 mi Calm Calm - N/A   Scattered Clouds
2:54 PM 75.2 °F 44.6 °F 34% 29.91 in 10.0 mi Calm Calm - N/A   Clear
3:14 PM 75.2 °F 44.6 °F 34% 29.91 in 10.0 mi ENE 3.5 mph - N/A   Clear
3:34 PM 75.2 °F 44.6 °F 34% 29.91 in 10.0 mi NNE 3.5 mph - N/A   Clear
3:54 PM 75.2 °F 42.8 °F 31% 29.90 in 10.0 mi Calm Calm - N/A   Clear
4:14 PM 77.0 °F 44.6 °F 32% 29.90 in 10.0 mi SE 3.5 mph - N/A   Clear
4:34 PM 75.2 °F 44.6 °F 34% 29.90 in 10.0 mi Calm Calm - N/A   Clear
4:54 PM 77.0 °F 42.8 °F 29% 29.90 in 10.0 mi South 4.6 mph - N/A   Scattered Clouds
5:14 PM 77.0 °F 42.8 °F 29% 29.89 in 10.0 mi South 3.5 mph - N/A   Scattered Clouds
5:34 PM 77.0 °F 44.6 °F 32% 29.89 in 10.0 mi Calm Calm - N/A   Clear
5:54 PM 77.0 °F 44.6 °F 32% 29.89 in 10.0 mi East 5.8 mph - N/A   Mostly Cloudy
6:14 PM 75.2 °F 44.6 °F 34% 29.90 in 10.0 mi Calm Calm - N/A   Mostly Cloudy
6:34 PM 73.4 °F 46.4 °F 38% 29.89 in 10.0 mi Calm Calm - N/A   Scattered Clouds
6:54 PM 71.6 °F 48.2 °F 43% 29.89 in 10.0 mi Calm Calm - N/A   Clear
7:14 PM 73.4 °F 46.4 °F 38% 29.89 in 10.0 mi Calm Calm - N/A   Clear
7:34 PM 73.4 °F 48.2 °F 41% 29.89 in 10.0 mi Calm Calm - N/A   Clear
7:54 PM 73.4 °F 50.0 °F 44% 29.89 in 10.0 mi Calm Calm - N/A   Clear
8:14 PM 69.8 °F 50.0 °F 49% 29.89 in 10.0 mi East 5.8 mph - N/A   Clear
8:34 PM 69.8 °F 51.8 °F 53% 29.89 in 10.0 mi Calm Calm - N/A   Clear
8:54 PM 68.0 °F 51.8 °F 56% 29.89 in 10.0 mi Calm Calm - N/A   Clear
9:14 PM 64.4 °F 50.0 °F 59% 29.90 in 10.0 mi Calm Calm - N/A   Clear
9:34 PM 64.4 °F 51.8 °F 64% 29.91 in 10.0 mi Calm Calm - N/A   Clear
10:14 PM 62.6 °F 51.8 °F 68% 29.93 in 10.0 mi Calm Calm - N/A   Mostly Cloudy
10:34 PM 62.6 °F 53.6 °F 72% 29.93 in 10.0 mi Calm Calm - N/A   Overcast
10:54 PM 62.6 °F 51.8 °F 68% 29.93 in 10.0 mi Calm Calm - N/A   Scattered Clouds
11:14 PM 60.8 °F 51.8 °F 72% 29.93 in 10.0 mi Calm Calm - N/A   Clear
11:34 PM 59.0 °F 50.0 °F 72% 29.93 in 10.0 mi Calm Calm - N/A   Clear
11:54 PM 59.0 °F 50.0 °F 72% 29.93 in 10.0 mi Calm Calm - N/A   Clear